DW7027 Weather Reports


Display with metric or nautical units.
time (UTC)temp
F
wind
direction
speed
MPH
gust
MPH
rain 1hr
in
rain 24hr
in
rain mn
in
humidity
%
barometer
mb
20190124055659 25 7 4.0 9.0 0.00 0.00 0.00 61 1003.0
20190124054659 25 7 6.0 9.0 0.00 0.00 0.00 61 1003.0
20190124053659 25 10 4.0 7.0 0.00 0.00 0.00 61 1003.0
20190124052659 25 7 6.0 10.0 0.00 0.00 0.00 61 1003.0
20190124051659 25 24 6.0 8.0 0.00 0.00 0.00 61 1003.0
20190124050659 26 11 4.0 10.0 0.00 0.00 0.00 61 1003.0
20190124045700 26 6 5.0 8.0 0.00 0.00 0.00 61 1002.0
20190124044659 26 358 5.0 9.0 0.00 0.00 0.00 61 1002.0
20190124043659 26 14 5.0 12.0 0.00 0.00 0.00 61 1002.0
20190124042659 26 349 4.0 8.0 0.00 0.00 0.00 62 1002.0
20190124041659 26 3 5.0 8.0 0.00 0.00 0.00 62 1002.0
20190124040659 26 15 5.0 9.0 0.00 0.00 0.00 62 1002.0
20190124035659 26 22 5.0 9.0 0.00 0.00 0.00 62 1002.0
20190124034700 26 22 5.0 10.0 0.00 0.00 0.00 62 1001.0
20190124033659 26 6 3.0 7.0 0.00 0.00 0.00 63 1001.0
20190124032700 26 8 6.0 8.0 0.00 0.00 0.00 63 1001.0
20190124031700 26 357 4.0 8.0 0.00 0.00 0.00 62 1001.0
20190124030700 26 0 5.0 9.0 0.00 0.00 0.00 62 1001.0
20190124025700 26 30 4.0 8.0 0.00 0.00 0.00 63 1001.0
20190124024659 26 1 5.0 9.0 0.00 0.00 0.00 63 1001.0
20190124023700 26 357 6.0 8.0 0.00 0.00 0.00 63 1001.0
20190124022701 27 13 3.0 7.0 0.00 0.00 0.00 63 1001.0
20190124021700 27 357 3.0 8.0 0.00 0.00 0.00 63 1001.0
20190124020700 27 14 5.0 7.0 0.00 0.00 0.00 63 1001.0
20190124015700 27 355 3.0 6.0 0.00 0.00 0.00 63 1001.0
20190124014700 27 35 4.0 6.0 0.00 0.00 0.00 63 1000.0
20190124013700 27 19 4.0 6.0 0.00 0.00 0.00 63 1000.0
20190124012659 27 12 4.0 7.0 0.00 0.00 0.00 63 1001.0
20190124011700 27 9 4.0 6.0 0.00 0.00 0.00 64 1001.0
20190124010659 27 4 5.0 8.0 0.00 0.00 0.00 64 1001.0
20190124005700 27 38 3.0 9.0 0.00 0.00 0.00 63 1001.0
20190124004700 27 21 5.0 9.0 0.00 0.00 0.00 63 1001.0
20190124003700 27 21 6.0 8.0 0.00 0.00 0.00 63 1001.0
20190124002700 27 25 3.0 8.0 0.00 0.00 0.00 64 1001.0
20190124001702 27 10 5.0 7.0 0.00 0.00 0.00 64 1001.0
20190124000700 27 30 5.0 9.0 0.00 0.00 0.00 63 1001.0
20190123235700 27 27 5.0 9.0 0.00 0.00 0.00 64 1001.0
20190123234700 27 34 6.0 9.0 0.00 0.00 0.00 64 1001.0
20190123233700 27 22 5.0 7.0 0.00 0.00 0.00 63 1001.0
20190123232700 27 44 3.0 6.0 0.00 0.00 0.00 62 1001.0
20190123231700 27 30 5.0 6.0 0.00 0.00 0.00 61 1000.0
20190123230701 27 9 6.0 9.0 0.00 0.00 0.00 61 1000.0
20190123225700 27 14 6.0 10.0 0.00 0.00 0.00 61 1000.0
20190123224700 27 31 6.0 9.0 0.00 0.00 0.00 62 1000.0
20190123223700 27 45 5.0 10.0 0.00 0.00 0.00 62 1000.0
20190123222700 27 42 5.0 9.0 0.00 0.00 0.00 63 1000.0
20190123221701 27 21 5.0 9.0 0.00 0.00 0.00 63 1000.0
20190123220700 27 37 5.0 8.0 0.00 0.00 0.00 65 1000.0
20190123215701 27 38 3.0 6.0 0.00 0.00 0.00 65 1000.0
20190123214700 27 38 5.0 8.0 0.00 0.00 0.00 66 1000.0
20190123213701 27 39 3.0 7.0 0.00 0.00 0.00 66 1000.0
20190123212703 27 39 5.0 7.0 0.00 0.00 0.00 66 1000.0
20190123211701 26 33 4.0 8.0 0.00 0.00 0.00 66 1000.0
20190123210701 26 18 3.0 8.0 0.00 0.00 0.00 65 1000.0
20190123205700 26 49 4.0 8.0 0.00 0.00 0.00 65 1000.0
20190123204700 26 31 5.0 7.0 0.00 0.00 0.00 65 1000.0
20190123203700 26 35 6.0 7.0 0.00 0.00 0.00 65 1000.0
20190123202700 26 36 5.0 7.0 0.00 0.00 0.00 66 1000.0
20190123201700 26 46 4.0 7.0 0.00 0.00 0.00 66 1000.0
20190123200700 26 49 3.0 8.0 0.00 0.00 0.00 67 1000.0
20190123195701 26 43 3.0 7.0 0.00 0.00 0.00 67 1000.0
20190123194700 26 33 4.0 7.0 0.00 0.00 0.00 67 1000.0
20190123193701 26 45 3.0 6.0 0.00 0.00 0.00 67 1000.0
20190123192701 26 21 2.0 5.0 0.00 0.00 0.00 69 1000.0
20190123191701 26 43 3.0 5.0 0.00 0.00 0.00 69 1000.0
20190123190700 26 27 2.0 5.0 0.00 0.00 0.00 68 1000.0
20190123185701 26 27 3.0 5.0 0.00 0.00 0.00 69 999.0
20190123184700 26 45 3.0 6.0 0.00 0.00 0.00 68 999.0
20190123183701 26 39 3.0 7.0 0.00 0.00 0.00 69 999.0
20190123182701 26 40 5.0 8.0 0.00 0.00 0.00 69 999.0
20190123181700 26 37 3.0 6.0 0.00 0.00 0.00 70 999.0
20190123180700 26 39 5.0 6.0 0.00 0.00 0.00 70 999.0
20190123175701 26 45 3.0 7.0 0.00 0.00 0.00 70 999.0
20190123174702 26 358 5.0 9.0 0.00 0.00 0.00 69 998.0
20190123173701 25 33 4.0 7.0 0.00 0.00 0.00 70 998.0
20190123172700 25 34 5.0 6.0 0.00 0.00 0.00 71 999.0
20190123171701 25 51 3.0 6.0 0.00 0.00 0.00 72 999.0
20190123170701 25 27 3.0 8.0 0.00 0.00 0.00 72 999.0
20190123165701 25 27 5.0 8.0 0.00 0.00 0.00 72 999.0
20190123164701 25 30 4.0 8.0 0.00 0.00 0.00 73 999.0
20190123163701 25 45 6.0 9.0 0.00 0.00 0.00 73 999.0
20190123162701 25 39 4.0 8.0 0.00 0.00 0.00 73 998.0
20190123161701 25 43 5.0 7.0 0.00 0.00 0.00 74 999.0
20190123160701 25 27 4.0 8.0 0.00 0.00 0.00 74 999.0
20190123155701 25 25 6.0 9.0 0.00 0.00 0.00 74 999.0
20190123154701 25 38 5.0 8.0 0.00 0.00 0.00 75 999.0
20190123153701 25 28 6.0 8.0 0.00 0.00 0.00 75 999.0
20190123152701 25 26 4.0 8.0 0.00 0.00 0.00 75 999.0
20190123151702 25 45 6.0 10.0 0.00 0.00 0.00 75 999.0
20190123150702 25 41 5.0 8.0 0.00 0.00 0.00 75 999.0
20190123145701 25 37 5.0 8.0 0.00 0.00 0.00 75 999.0
20190123144702 25 49 3.0 8.0 0.00 0.00 0.00 74 999.0
20190123143702 25 51 5.0 10.0 0.00 0.00 0.00 74 999.0
20190123142704 25 47 6.0 10.0 0.00 0.00 0.00 75 999.0
20190123141701 25 29 5.0 8.0 0.00 0.00 0.00 75 999.0
20190123140702 25 45 6.0 10.0 0.00 0.00 0.00 74 999.0
20190123135702 25 37 5.0 10.0 0.00 0.00 0.00 74 999.0
20190123134701 25 43 7.0 10.0 0.00 0.00 0.00 74 999.0
20190123133701 25 63 5.0 8.0 0.00 0.00 0.00 74 999.0
20190123132701 25 46 6.0 10.0 0.00 0.00 0.00 73 999.0
20190123131701 26 53 5.0 12.0 0.00 0.00 0.00 73 999.0
20190123130702 26 31 7.0 10.0 0.00 0.00 0.00 74 999.0
20190123125702 26 45 6.0 9.0 0.00 0.00 0.00 75 999.0
20190123124701 25 46 6.0 7.0 0.00 0.00 0.00 76 998.0
20190123123701 25 37 5.0 8.0 0.00 0.00 0.00 76 998.0
20190123122701 25 45 5.0 7.0 0.00 0.00 0.00 75 999.0
20190123121701 24 34 3.0 8.0 0.00 0.00 0.00 75 999.0
20190123120702 24 20 3.0 7.0 0.00 0.00 0.00 75 999.0
20190123115702 24 37 4.0 6.0 0.00 0.00 0.00 75 999.0
20190123114702 23 20 5.0 8.0 0.00 0.00 0.00 74 999.0
20190123113702 23 39 3.0 5.0 0.00 0.00 0.00 73 999.0
20190123112702 23 23 3.0 7.0 0.00 0.00 0.00 73 999.0
20190123111701 23 22 4.0 6.0 0.00 0.00 0.00 75 999.0
20190123110702 22 24 3.0 7.0 0.00 0.00 0.00 77 999.0
20190123105703 22 8 3.0 7.0 0.00 0.00 0.00 79 1000.0
20190123104704 22 19 4.0 8.0 0.00 0.00 0.00 80 1000.0
20190123103702 22 12 4.0 7.0 0.00 0.00 0.00 82 1000.0
20190123102702 21 27 3.0 5.0 0.00 0.00 0.00 83 1000.0
20190123101701 21 27 2.0 5.0 0.00 0.00 0.00 84 1000.0
20190123100702 20 17 3.0 5.0 0.00 0.00 0.00 84 1000.0
20190123095704 20 13 3.0 6.0 0.00 0.00 0.00 84 1001.0
20190123094701 20 43 2.0 5.0 0.00 0.00 0.00 84 1001.0
20190123093702 20 24 3.0 5.0 0.00 0.00 0.00 84 1001.0
20190123092702 19 18 3.0 7.0 0.00 0.00 0.00 84 1001.0
20190123091703 19 8 3.0 6.0 0.00 0.00 0.00 85 1001.0
20190123090702 19 25 3.0 5.0 0.00 0.00 0.00 85 1001.0
20190123085702 18 18 2.0 5.0 0.00 0.00 0.00 85 1000.0
20190123084703 18 4 3.0 6.0 0.00 0.00 0.00 85 1001.0
20190123083702 18 0 3.0 6.0 0.00 0.00 0.00 85 1001.0
20190123082703 18 19 3.0 6.0 0.00 0.00 0.00 85 1001.0
20190123081702 18 14 3.0 6.0 0.00 0.00 0.00 85 1001.0
20190123080702 18 22 3.0 6.0 0.00 0.00 0.00 85 1001.0
20190123075702 19 11 2.0 5.0 0.00 0.00 0.00 86 1001.0
20190123074702 19 22 2.0 5.0 0.00 0.00 0.00 86 1001.0
20190123073703 19 16 5.0 6.0 0.00 0.00 0.00 86 1001.0
20190123072703 19 4 3.0 6.0 0.00 0.00 0.00 86 1001.0
20190123071703 19 43 1.0 5.0 0.00 0.00 0.00 86 1001.0
20190123070702 19 41 2.0 5.0 0.00 0.00 0.00 86 1001.0
20190123065702 19 34 2.0 5.0 0.00 0.00 0.00 86 1001.0
20190123064702 19 24 3.0 6.0 0.00 0.00 0.00 86 1001.0
20190123063703 19 13 2.0 5.0 0.00 0.00 0.00 86 1001.0
20190123062703 19 38 3.0 5.0 0.00 0.00 0.00 86 1001.0
20190123061703 19 12 2.0 5.0 0.00 0.00 0.00 86 1001.0
20190123060703 19 35 1.0 3.0 0.00 0.00 0.00 86 1001.0